Location: Rometta
(44.2000°N, 10.0500°E)
Time: 22:47:42
(UTC+00:00)

Meteor 2-5 Rocket - Pass Details

Date: 20 January 2021
Orbit: 833 x 911 km, 81.2° (Epoch: 04 March)

Event Time Altitude Azimuth Distance (km) Brightness Sun altitude
Rises 17:04:58 0° 196° (SSW) 3,403 7.4 -9.3°
Reaches altitude 10° 17:07:24 10° 199° (SSW) 2,462 6.7 -9.7°
Maximum altitude 17:12:57 69° 282° (WNW) 900 4.1 -10.7°
Drops below altitude 10° 17:18:29 10° 6° (N) 2,454 5.9 -11.6°
Sets 17:20:55 0° 9° (N) 3,392 6.6 -12.0°
